[TLELIST] Archives

 

[list_settings.list_name] Current TLEs

October 15th 2013 PST

HST 1 20580U 90037B 13287.13523067 .00002600 00000-0 17149-3 0 3528 2 20580 028.4702 212.8469 0003079 175.8750 330.3995 15.04007668 87626 ISS (ZARYA) 1 25544U 98067A 13288.10868056 .00009411 00000-0 17493-3 0 8098 2 25544 051.6508 234.1159 0002644 031.3596 154.1373 15.49627621853301 CXO 1 25867U 99040B 13289.57989570 -.00000219 00000-0 00000+0 0 9636 2 25867 076.0901 332.6189 8437107 276.5855 000.0224 00.37804987 10996 ____________________________________________________________________ These 2-Line ...Continue Reading

[list_settings.list_name] Current TLEs

October 14th 2013 PST

HST 1 20580U 90037B 13287.13523067 .00002600 00000-0 17149-3 0 3528 2 20580 028.4702 212.8469 0003079 175.8750 330.3995 15.04007668 87626 ISS (ZARYA) 1 25544U 98067A 13287.38203822 .00009724 00000-0 18054-3 0 8047 2 25544 051.6494 237.7133 0002608 030.3754 058.7781 15.49614433853197 CXO 1 25867U 99040B 13289.57989570 -.00000219 00000-0 00000+0 0 9636 2 25867 076.0901 332.6189 8437107 276.5855 000.0224 00.37804987 10996 ____________________________________________________________________ These 2-Line ...Continue Reading

[list_settings.list_name] Current TLEs

October 13th 2013 PST

HST 1 20580U 90037B 13285.27335738 .00002231 00000-0 14545-3 0 3513 2 20580 028.4701 225.0585 0003194 156.0346 329.3954 15.04000956 87345 ISS (ZARYA) 1 25544U 98067A 13286.48169131 .00010250 00000-0 18998-3 0 7975 2 25544 051.6502 242.1697 0002612 024.2879 078.9001 15.49598398853052 CXO 1 25867U 99040B 13286.93386196 .00000056 00000-0 00000+0 0 9614 2 25867 076.0764 332.7693 8443413 276.5953 359.8936 00.37805479 10981 ____________________________________________________________________ These 2-Line ...Continue Reading

[list_settings.list_name] Current TLEs

October 12th 2013 PST

HST 1 20580U 90037B 13284.14467884 .00002192 00000-0 14270-3 0 3506 2 20580 028.4699 232.4567 0003171 144.3571 337.9062 15.03998616 87172 ISS (ZARYA) 1 25544U 98067A 13285.51451512 .00011194 00000-0 20684-3 0 7912 2 25544 051.6505 246.9576 0002651 020.5528 083.6757 15.49581564852907 CXO 1 25867U 99040B 13286.93386196 .00000056 00000-0 00000+0 0 9614 2 25867 076.0764 332.7693 8443413 276.5953 359.8936 00.37805479 10981 ____________________________________________________________________ These 2-Line ...Continue Reading

[list_settings.list_name] Current TLEs

October 11th 2013 PST

HST 1 20580U 90037B 13284.14467884 .00002192 00000-0 14270-3 0 3506 2 20580 028.4699 232.4567 0003171 144.3571 337.9062 15.03998616 87172 ISS (ZARYA) 1 25544U 98067A 13284.41880267 .00011160 00000-0 20640-3 0 7840 2 25544 051.6509 252.3815 0002616 019.1387 088.6845 15.49556422852735 CXO 1 25867U 99040B 13284.28782675 .00000199 00000-0 00000+0 0 9609 2 25867 076.0620 332.9243 8447292 276.5891 359.8126 00.37802515 10973 ____________________________________________________________________ These 2-Line ...Continue Reading

[list_settings.list_name] Current TLEs

October 10th 2013 PST

HST 1 20580U 90037B 13283.00674197 .00001654 00000-0 10473-3 0 3498 2 20580 028.4700 239.9203 0003209 130.9162 297.9742 15.03994410 86990 ISS (ZARYA) 1 25544U 98067A 13283.39651319 .00010979 00000-0 20337-3 0 7772 2 25544 051.6511 257.4426 0002718 015.8578 145.5000 15.49532023852579 CXO 1 25867U 99040B 13284.28782675 .00000199 00000-0 00000+0 0 9609 2 25867 076.0620 332.9243 8447292 276.5891 359.8126 00.37802515 10973 ____________________________________________________________________ These 2-Line ...Continue Reading

[list_settings.list_name] Current TLEs

October 9th 2013 PST

HST 1 20580U 90037B 13281.35833523 .00001711 00000-0 10880-3 0 3489 2 20580 028.4701 250.7321 0003263 114.3038 011.9332 15.03982959 86759 ISS (ZARYA) 1 25544U 98067A 13282.42686838 .00008565 00000-0 16062-3 0 7700 2 25544 051.6505 262.2428 0002637 013.5500 135.2868 15.49504057852426 CXO 1 25867U 99040B 13284.28782675 .00000199 00000-0 00000+0 0 9609 2 25867 076.0620 332.9243 8447292 276.5891 359.8126 00.37802515 10973 ____________________________________________________________________ These 2-Line ...Continue Reading

[list_settings.list_name] Current TLEs

October 8th 2013 PST

HST 1 20580U 90037B 13280.15730213 .00001450 00000-0 90314-4 0 3478 2 20580 028.4702 258.6095 0003318 101.5582 349.0607 15.03979793 86569 ISS (ZARYA) 1 25544U 98067A 13281.39547289 .00005958 00000-0 11432-3 0 7632 2 25544 051.6503 267.3467 0002570 007.4170 144.3040 15.49478858852268 CXO 1 25867U 99040B 13284.28782675 .00000199 00000-0 00000+0 0 9609 2 25867 076.0620 332.9243 8447292 276.5891 359.8126 00.37802515 10973 ____________________________________________________________________ These 2-Line ...Continue Reading

[list_settings.list_name] Current TLEs

October 7th 2013 PST

HST 1 20580U 90037B 13280.15730213 .00001450 00000-0 90314-4 0 3478 2 20580 028.4702 258.6095 0003318 101.5582 349.0607 15.03979793 86569 ISS (ZARYA) 1 25544U 98067A 13280.42885959 .00005876 00000-0 11291-3 0 7579 2 25544 051.6505 272.1308 0002430 003.5825 152.7127 15.49465980852112 CXO 1 25867U 99040B 13281.64281177 .00000169 00000-0 00000+0 0 9592 2 25867 076.0523 333.0609 8450157 276.5850 359.8889 00.37803545 10961 ____________________________________________________________________ These 2-Line ...Continue Reading

[list_settings.list_name] Current TLEs

October 6th 2013 PST

HST 1 20580U 90037B 13278.43957977 .00001546 00000-0 97123-4 0 3464 2 20580 028.4702 269.8755 0003343 086.0124 045.9740 15.03974858 86313 ISS (ZARYA) 1 25544U 98067A 13279.39610016 .00006239 00000-0 11944-3 0 7505 2 25544 051.6503 277.2442 0002289 358.2134 153.4950 15.49454138851956 CXO 1 25867U 99040B 13281.64281177 .00000169 00000-0 00000+0 0 9592 2 25867 076.0523 333.0609 8450157 276.5850 359.8889 00.37803545 10961 ____________________________________________________________________ These 2-Line ...Continue Reading
  • This mailing list is a public mailing list - anyone may join or leave, at any time.
  • This mailing list is announce-only.

International Space Station (ISS) / Hubble Space Telescope (HST) / Chandra X-Ray Observatory Orbital Data via EMAIL

Privacy Policy:

Private list